Location: Karcze
(52.0945°N, 22.4786°E)
Time: 01:34:53
(UTC+00:00)

Cosmos 2360 Rocket - Visible Passes

Search period start: 24 October 2020 00:00
Search period end: 03 November 2020 00:00
Orbit: 835 x 844 km, 71.0° (Epoch: 23 October)

Date Brightness Start Highest point End Pass type
(mag) Time Alt. Az. Time Alt. Az. Time Alt. Az.
24 Oct 4.9 00:18:42 12° N 00:18:42 12° N 00:19:34 10° NNE visible
24 Oct 4.7 02:01:35 10° N 02:03:29 12° N 02:05:24 10° NNE visible
24 Oct 4.2 03:45:16 10° NNW 03:49:45 23° NE 03:54:12 10° E visible
25 Oct 5.0 00:03:22 11° N 00:03:22 11° N 00:03:49 10° NNE visible
25 Oct 4.7 01:45:49 10° N 01:47:39 11° N 01:49:29 10° NNE visible
25 Oct 4.2 03:29:32 10° NNW 03:33:56 23° NE 03:38:19 10° E visible
25 Oct 5.1 23:48:04 10° NNE 23:48:04 10° NNE 23:48:05 10° NNE visible
26 Oct 4.8 01:30:02 10° N 01:31:49 11° N 01:33:35 10° NNE visible
26 Oct 4.3 03:13:48 10° NNW 03:18:08 22° NE 03:22:27 10° E visible
27 Oct 4.8 01:14:33 10° N 01:15:58 11° N 01:17:40 10° NNE visible
27 Oct 4.3 02:58:04 10° NNW 03:02:20 21° NNE 03:06:33 10° E visible
27 Oct 2.5 04:41:42 10° NNW 04:47:21 72° ENE 04:52:57 10° SE visible
28 Oct 4.8 00:59:17 11° N 01:00:08 11° N 01:01:46 10° NNE visible
28 Oct 4.4 02:42:20 10° NNW 02:46:31 21° NNE 02:50:40 10° E visible
28 Oct 2.6 04:25:57 10° NNW 04:31:36 68° NE 04:37:11 10° SE visible
29 Oct 4.9 00:44:04 11° N 00:44:17 11° N 00:45:52 10° NNE visible
29 Oct 4.4 02:26:36 10° NNW 02:30:42 20° NNE 02:34:47 10° ENE visible
29 Oct 2.6 04:10:13 10° NNW 04:15:50 65° NE 04:21:25 10° SE visible
30 Oct 5.0 00:28:52 11° N 00:28:52 11° N 00:29:59 10° NNE visible
30 Oct 4.4 02:10:53 10° NNW 02:14:54 19° NNE 02:18:53 10° ENE visible
30 Oct 2.7 03:54:28 10° NNW 04:00:04 62° NE 04:05:38 10° SE visible
31 Oct 5.0 00:13:44 10° NNE 00:13:44 10° NNE 00:14:07 10° NNE visible
31 Oct 4.5 01:55:31 11° NNW 01:59:05 19° NNE 02:03:00 10° ENE visible
31 Oct 2.7 03:38:44 10° NNW 03:44:19 59° NE 03:49:51 10° SE visible
01 Nov 4.5 01:40:27 13° N 01:43:16 18° NNE 01:47:06 10° ENE visible
01 Nov 2.8 03:22:59 10° NNW 03:28:33 56° NE 03:34:04 10° SE visible
02 Nov 4.5 01:25:27 15° N 01:27:27 18° NNE 01:31:12 10° ENE visible
02 Nov 2.9 03:07:15 10° NNW 03:12:47 53° NE 03:18:17 10° SE visible
02 Nov 2.9 04:51:36 10° NW 04:56:35 33° WSW 05:01:32 10° SSW visible
